| time (UTC) | temp C | wind direction | speed KPH | gust KPH | rain 1hr cm | rain 24hr cm | rain mn cm | humidity % | barometer mb |
| 20260509074550 | 12 | 0 | 0.0 | 0.0 | 0.00 | 0.00 | 0.00 | 99 | 1013.0 |
| 20260509073100 | 12 | 0 | 0.0 | 0.0 | 0.00 | 0.00 | 0.00 | 98 | 1012.8 |
| 20260509071552 | 12 | 0 | 0.0 | 0.0 | 0.00 | 0.00 | 0.00 | 98 | 1012.7 |
| 20260509070058 | 12 | 0 | 0.0 | 0.0 | 0.00 | 0.00 | 0.00 | 99 | 1013.3 |
| 20260509064549 | 12 | 0 | 0.0 | 0.0 | 0.00 | 0.00 | 0.00 | 99 | 1013.6 |
| 20260509063103 | 12 | 0 | 0.0 | 0.0 | 0.00 | 0.00 | 0.00 | 99 | 1014.2 |
| 20260509061549 | 12 | 0 | 0.0 | 0.0 | 0.00 | 0.00 | 0.00 | 99 | 1014.5 |
| 20260509060056 | 12 | 0 | 0.0 | 0.0 | 0.00 | 0.00 | 0.00 | 98 | 1014.5 |
| 20260509054557 | 12 | 0 | 0.0 | 0.0 | 0.00 | 0.00 | 0.00 | 98 | 1014.7 |
| 20260509053052 | 12 | 0 | 0.0 | 0.0 | 0.00 | 0.00 | 0.00 | 97 | 1014.5 |
| 20260509051553 | 12 | 0 | 0.0 | 0.0 | 0.00 | 0.00 | 0.00 | 97 | 1014.7 |
| 20260509050101 | 12 | 0 | 0.0 | 0.0 | 0.00 | 0.00 | 0.00 | 97 | 1014.6 |
| 20260509044547 | 12 | 0 | 0.0 | 0.0 | 0.00 | 0.00 | 0.00 | 97 | 1014.9 |
| 20260509043050 | 13 | 0 | 0.0 | 0.0 | 0.00 | 0.00 | 0.00 | 97 | 1014.9 |
| 20260509041552 | 13 | 0 | 0.0 | 0.0 | 0.00 | 0.00 | 0.00 | 96 | 1015.1 |
| 20260509040052 | 13 | 0 | 0.0 | 0.0 | 0.00 | 0.00 | 0.00 | 96 | 1015.0 |
| 20260509034554 | 13 | 0 | 0.0 | 0.0 | 0.00 | 0.00 | 0.00 | 96 | 1015.5 |
| 20260509033105 | 13 | 0 | 0.0 | 0.0 | 0.00 | 0.00 | 0.00 | 95 | 1015.5 |
| 20260509031553 | 14 | 0 | 0.0 | 0.0 | 0.00 | 0.00 | 0.00 | 94 | 1015.8 |
| 20260509030052 | 14 | 0 | 0.0 | 1.6 | 0.00 | 0.00 | 0.00 | 94 | 1015.8 |
| 20260509024558 | 15 | 0 | 0.0 | 0.0 | 0.00 | 0.00 | 0.00 | 92 | 1015.9 |
| 20260509023051 | 15 | 0 | 0.0 | 0.0 | 0.00 | 0.00 | 0.00 | 90 | 1016.1 |
| 20260509021555 | 16 | 0 | 0.0 | 3.2 | 0.00 | 0.00 | 0.00 | 88 | 1015.8 |
| 20260509020050 | 16 | 0 | 0.0 | 1.6 | 0.00 | 0.00 | 0.00 | 86 | 1015.6 |
| 20260509014553 | 16 | 0 | 0.0 | 4.8 | 0.00 | 0.00 | 0.00 | 85 | 1015.6 |
| 20260509013055 | 16 | 0 | 0.0 | 4.8 | 0.00 | 0.00 | 0.00 | 84 | 1015.5 |
| 20260509011604 | 16 | 0 | 0.0 | 3.2 | 0.00 | 0.00 | 0.00 | 84 | 1015.4 |
| 20260509010100 | 16 | 0 | 0.0 | 1.6 | 0.00 | 0.00 | 0.00 | 84 | 1015.3 |
| 20260509004600 | 17 | 0 | 0.0 | 1.6 | 0.00 | 0.00 | 0.00 | 83 | 1015.1 |
| 20260509003053 | 17 | 0 | 0.0 | 3.2 | 0.00 | 0.00 | 0.00 | 83 | 1015.0 |
| 20260509001552 | 17 | 0 | 0.0 | 3.2 | 0.00 | 0.00 | 0.00 | 81 | 1015.3 |
| 20260509000053 | 17 | 267 | 0.0 | 4.8 | 0.00 | 0.00 | 0.00 | 82 | 1015.2 |
| 20260508234556 | 17 | 0 | 0.0 | 0.0 | 0.00 | 0.00 | 0.00 | 84 | 1015.1 |
| 20260508233050 | 18 | 0 | 0.0 | 0.0 | 0.00 | 0.00 | 0.00 | 83 | 1015.1 |
| 20260508231557 | 18 | 0 | 0.0 | 0.0 | 0.00 | 0.00 | 0.00 | 80 | 1014.9 |
| 20260508230051 | 18 | 0 | 0.0 | 0.0 | 0.00 | 0.00 | 0.00 | 77 | 1014.8 |
| 20260508224609 | 20 | 0 | 0.0 | 3.2 | 0.00 | 0.00 | 0.00 | 74 | 1014.9 |
| 20260508223051 | 20 | 0 | 0.0 | 4.8 | 0.00 | 0.00 | 0.00 | 72 | 1015.1 |
| 20260508221609 | 20 | 0 | 0.0 | 3.2 | 0.00 | 0.00 | 0.00 | 68 | 1014.9 |
| 20260508220052 | 21 | 0 | 0.0 | 4.8 | 0.00 | 0.00 | 0.00 | 72 | 1015.1 |
| 20260508214552 | 21 | 0 | 0.0 | 4.8 | 0.00 | 0.00 | 0.00 | 65 | 1015.1 |
| 20260508213053 | 21 | 156 | 1.6 | 6.4 | 0.00 | 0.00 | 0.00 | 63 | 1015.1 |
| 20260508211553 | 21 | 0 | 0.0 | 3.2 | 0.00 | 0.00 | 0.00 | 65 | 1015.0 |
| 20260508210053 | 21 | 0 | 0.0 | 3.2 | 0.00 | 0.00 | 0.00 | 65 | 1015.0 |
| 20260508204552 | 21 | 0 | 0.0 | 1.6 | 0.00 | 0.00 | 0.00 | 66 | 1015.3 |
| 20260508203054 | 21 | 0 | 0.0 | 3.2 | 0.00 | 0.00 | 0.00 | 67 | 1015.4 |
| 20260508201553 | 21 | 0 | 1.6 | 4.8 | 0.00 | 0.00 | 0.00 | 60 | 1015.1 |
| 20260508194547 | 22 | 0 | 0.0 | 4.8 | 0.00 | 0.00 | 0.00 | 56 | 1016.0 |
| 20260508193102 | 22 | 140 | 1.6 | 4.8 | 0.00 | 0.00 | 0.00 | 54 | 1016.0 |
| 20260508191551 | 22 | 193 | 1.6 | 6.4 | 0.00 | 0.00 | 0.00 | 56 | 1016.3 |
| 20260508190057 | 22 | 210 | 1.6 | 6.4 | 0.00 | 0.00 | 0.00 | 56 | 1016.6 |
| 20260508184550 | 22 | 173 | 3.2 | 14.5 | 0.00 | 0.00 | 0.00 | 57 | 1016.6 |
| 20260508183103 | 22 | 163 | 3.2 | 11.3 | 0.00 | 0.00 | 0.00 | 56 | 1016.8 |
| 20260508181611 | 22 | 0 | 1.6 | 6.4 | 0.00 | 0.00 | 0.00 | 51 | 1016.8 |
| 20260508180058 | 22 | 0 | 1.6 | 11.3 | 0.00 | 0.00 | 0.00 | 56 | 1017.1 |
| 20260508174551 | 22 | 0 | 1.6 | 11.3 | 0.00 | 0.00 | 0.00 | 59 | 1017.3 |
| 20260508173102 | 22 | 0 | 3.2 | 9.7 | 0.00 | 0.00 | 0.00 | 58 | 1017.6 |
| 20260508171555 | 21 | 256 | 0.0 | 4.8 | 0.00 | 0.00 | 0.00 | 65 | 1017.4 |
| 20260508170051 | 21 | 0 | 1.6 | 9.7 | 0.00 | 0.00 | 0.00 | 62 | 1017.8 |
| 20260508164553 | 20 | 44 | 1.6 | 8.0 | 0.00 | 0.00 | 0.00 | 64 | 1018.1 |
| 20260508163057 | 20 | 0 | 1.6 | 11.3 | 0.00 | 0.00 | 0.00 | 65 | 1018.3 |
| 20260508161554 | 20 | 0 | 0.0 | 11.3 | 0.00 | 0.00 | 0.00 | 69 | 1018.6 |
| 20260508160100 | 20 | 150 | 1.6 | 11.3 | 0.00 | 0.00 | 0.00 | 64 | 1018.7 |
| 20260508154553 | 20 | 0 | 0.0 | 11.3 | 0.00 | 0.00 | 0.00 | 70 | 1018.8 |
| 20260508153051 | 19 | 127 | 1.6 | 8.0 | 0.00 | 0.00 | 0.00 | 72 | 1019.0 |
| 20260508151551 | 18 | 208 | 1.6 | 8.0 | 0.00 | 0.00 | 0.00 | 75 | 1019.0 |
| 20260508150107 | 17 | 135 | 0.0 | 9.7 | 0.00 | 0.00 | 0.00 | 78 | 1019.3 |
| 20260508144558 | 17 | 117 | 0.0 | 8.0 | 0.00 | 0.10 | 0.00 | 78 | 1019.1 |
| 20260508143053 | 16 | 51 | 0.0 | 4.8 | 0.00 | 0.10 | 0.00 | 81 | 1019.1 |
| 20260508141600 | 16 | 59 | 0.0 | 4.8 | 0.00 | 0.10 | 0.00 | 83 | 1019.1 |
| 20260508140058 | 15 | 175 | 0.0 | 3.2 | 0.00 | 0.10 | 0.00 | 88 | 1019.1 |
| 20260508134548 | 13 | 70 | 0.0 | 3.2 | 0.00 | 0.25 | 0.00 | 94 | 1019.4 |
| 20260508133048 | 12 | 0 | 0.0 | 4.8 | 0.00 | 0.25 | 0.00 | 99 | 1019.5 |
| 20260508131555 | 12 | 0 | 0.0 | 3.2 | 0.00 | 0.25 | 0.00 | 100 | 1019.3 |
| 20260508130048 | 11 | 77 | 0.0 | 1.6 | 0.00 | 0.25 | 0.00 | 100 | 1019.2 |
| 20260508124550 | 11 | 0 | 0.0 | 0.0 | 0.00 | 1.02 | 0.00 | 100 | 1019.1 |
| 20260508123052 | 10 | 0 | 0.0 | 1.6 | 0.00 | 1.02 | 0.00 | 100 | 1019.2 |
| 20260508121552 | 9 | 0 | 0.0 | 0.0 | 0.00 | 1.02 | 0.00 | 100 | 1018.8 |
| 20260508120053 | 8 | 0 | 0.0 | 0.0 | 0.00 | 1.02 | 0.00 | 100 | 1018.2 |
| 20260508114601 | 8 | 0 | 0.0 | 1.6 | 0.00 | 2.44 | 0.00 | 100 | 1018.0 |
| 20260508113125 | 7 | 0 | 0.0 | 0.0 | 0.00 | 2.44 | 0.00 | 100 | 1017.9 |
| 20260508111549 | 7 | 0 | 0.0 | 0.0 | 0.00 | 2.44 | 0.00 | 99 | 1017.7 |
| 20260508110051 | 7 | 0 | 0.0 | 0.0 | 0.00 | 2.44 | 0.00 | 99 | 1017.6 |
| 20260508104555 | 7 | 0 | 0.0 | 1.6 | 0.00 | 3.63 | 0.00 | 99 | 1017.3 |
| 20260508103102 | 7 | 0 | 0.0 | 0.0 | 0.00 | 3.63 | 0.00 | 99 | 1016.7 |
| 20260508101551 | 7 | 0 | 0.0 | 1.6 | 0.00 | 3.63 | 0.00 | 99 | 1016.5 |
| 20260508100055 | 7 | 0 | 0.0 | 0.0 | 0.00 | 3.63 | 0.00 | 99 | 1016.5 |
| 20260508094552 | 8 | 0 | 0.0 | 0.0 | 0.00 | 3.76 | 0.00 | 99 | 1016.4 |
| 20260508093055 | 8 | 0 | 0.0 | 0.0 | 0.00 | 3.76 | 0.00 | 99 | 1016.4 |
| 20260508091552 | 8 | 0 | 0.0 | 0.0 | 0.00 | 3.76 | 0.00 | 99 | 1016.0 |
| 20260508090059 | 8 | 0 | 0.0 | 0.0 | 0.00 | 3.76 | 0.00 | 98 | 1016.1 |
| 20260508084552 | 8 | 0 | 0.0 | 0.0 | 0.00 | 3.84 | 0.00 | 99 | 1016.1 |
| 20260508083052 | 8 | 0 | 0.0 | 1.6 | 0.00 | 3.84 | 0.00 | 99 | 1016.0 |
| 20260508081601 | 8 | 0 | 0.0 | 0.0 | 0.00 | 3.84 | 0.00 | 99 | 1015.8 |
| 20260508080052 | 8 | 0 | 0.0 | 1.6 | 0.00 | 3.84 | 0.00 | 99 | 1015.9 |